Weather History for Tallahassee, FL

Change the Weather History Date:

Sunday, March 9, 2014

  Actual Average Record
Temperature  
Mean Temperature 59 °F 59 °F  
Max Temperature 77 °F 73 °F 87 °F (1974)
Min Temperature 41 °F 46 °F 24 °F (1971)
Degree Days  
Heating Degree Days 6    
Month to date heating degree days 97  
Since 1 July heating degree days 1240  
Cooling Degree Days 0    
Month to date cooling degree days 0  
Year to date cooling degree days 12  
Growing Degree Days 9 (Base 50)    
Moisture  
Dew Point 45 °F    
Average Humidity 63    
Maximum Humidity 89    
Minimum Humidity 36    
Precipitation  
Precipitation 0.00 in 0.20 in 2.75 in (1948)
Month to date precipitation 2.25 1.93  
Year to date precipitation 10.30 11.12  
Sea Level Pressure  
Sea Level Pressure 30.16 in    
Wind  
Wind Speed 3 mph (WNW)    
Max Wind Speed 13 mph    
Max Gust Speed 16 mph    
Visibility 10 miles    
Events Fog    
T = Trace of Precipitation, MM = Missing Value Source: NWS Daily Summary

Daily Weather History Graph

Daily Weather History Graph

Search for Another Location

Airport:

Trip Planner

Search our weather history database for the weather conditions in past years. The results will help you decide how hot, cold, wet, or windy it might be!

Date:

Astronomy

Mar. 09, 2014 Rise Set
Actual Time 7:54 AM EDT 7:41 PM EDT
Civil Twilight 7:30 AM EDT 8:05 PM EDT
Nautical Twilight 7:02 AM EDT 8:33 PM EDT
Astronomical Twilight 6:34 AM EDT 9:01 PM EDT
Moon 1:51 PM EDT (3/9) 3:02 AM EDT (3/9)
Length of Visible Light 12h 35m
Length of Day
11h 47m
First Quarter, 61% of the Moon is Illuminated
Mar 9
First Quarter
Mar 16
Full
Mar 23
Last Quarter
Mar 30
New
Apr 7
First Quarter

Hourly Weather History & Observations

Time (EDT) Temp. Dew Point Humidity Pressure Visibility Wind Dir Wind Speed Gust Speed Precip Events Conditions
12:53 AM 46.9 °F 43.0 °F 86% 30.18 in 9.0 mi Calm Calm - N/A   Clear
1:53 AM 46.0 °F 42.1 °F 86% 30.18 in 10.0 mi Calm Calm - N/A   Clear
3:53 AM 46.0 °F 41.0 °F 83% 30.17 in 10.0 mi Calm Calm - N/A   Clear
4:53 AM 44.1 °F 39.9 °F 85% 30.16 in 10.0 mi Calm Calm - N/A   Clear
5:53 AM 43.0 °F 39.0 °F 86% 30.17 in 10.0 mi Calm Calm - N/A Fog Patches of Fog
6:53 AM 44.1 °F 39.0 °F 82% 30.18 in 10.0 mi Calm Calm - N/A Fog Patches of Fog
7:53 AM 41.0 °F 37.0 °F 86% 30.19 in 10.0 mi Calm Calm - N/A Fog Patches of Fog
8:53 AM 46.0 °F 41.0 °F 83% 30.22 in 10.0 mi Calm Calm - N/A Fog Patches of Fog
9:53 AM 57.0 °F 46.9 °F 69% 30.23 in 10.0 mi North 5.8 mph - N/A   Scattered Clouds
10:53 AM 63.0 °F 48.0 °F 58% 30.23 in 10.0 mi North 8.1 mph - N/A   Scattered Clouds
11:53 AM 68.0 °F 48.0 °F 49% 30.21 in 10.0 mi Variable 3.5 mph - N/A   Scattered Clouds
12:53 PM 71.1 °F 48.0 °F 44% 30.19 in 10.0 mi Variable 3.5 mph - N/A   Scattered Clouds
1:53 PM 73.0 °F 46.0 °F 38% 30.18 in 10.0 mi WNW 3.5 mph - N/A   Scattered Clouds
2:53 PM 75.0 °F 46.9 °F 37% 30.15 in 10.0 mi WNW 5.8 mph - N/A   Scattered Clouds
3:53 PM 77.0 °F 48.0 °F 36% 30.12 in 10.0 mi West 5.8 mph - N/A   Mostly Cloudy
4:53 PM 75.0 °F 46.9 °F 37% 30.11 in 10.0 mi WNW 5.8 mph - N/A   Mostly Cloudy
5:53 PM 75.0 °F 46.9 °F 37% 30.10 in 10.0 mi NW 4.6 mph - N/A   Mostly Cloudy
6:53 PM 69.1 °F 50.0 °F 51% 30.10 in 10.0 mi South 4.6 mph - N/A   Mostly Cloudy
7:53 PM 66.0 °F 51.1 °F 59% 30.12 in 10.0 mi Calm Calm - N/A   Mostly Cloudy
8:53 PM 63.0 °F 51.1 °F 65% 30.13 in 10.0 mi SSW 8.1 mph - N/A   Scattered Clouds
9:53 PM 61.0 °F 50.0 °F 67% 30.14 in 10.0 mi Calm Calm - N/A   Mostly Cloudy
10:53 PM 60.1 °F 48.9 °F 67% 30.15 in 10.0 mi Calm Calm - N/A   Mostly Cloudy
11:53 PM 57.9 °F 46.9 °F 67% 30.16 in 10.0 mi Calm Calm - N/A   Clear
12:53 AM 55.9 °F 46.0 °F 69% 30.16 in 10.0 mi West 3.5 mph - N/A   Clear